PY4QS Weather Reports


time (UTC)temp
C
wind
direction
speed
KPH
gust
KPH
rain 1hr
cm
rain 24hr
cm
rain mn
cm
humidity
%
barometer
mb
20260505123743 22 0.0 0.0 0.00 0.00 0.00 63 1027.6
20260505123512 22 0.0 0.0 0.00 0.00 0.00 62 1027.6
20260505123003 22 0.0 0.0 0.00 0.00 0.00 64 1027.6
20260505122454 22 0.0 0.0 0.00 0.00 0.00 64 1027.7
20260505121950 21 0.0 0.0 0.00 0.00 0.00 63 1027.6
20260505121441 21 0.0 0.0 0.00 0.00 0.00 64 1027.5
20260505120935 21 0.0 0.0 0.00 0.00 0.00 63 1027.5
20260505120428 21 0.0 0.0 0.00 0.00 0.00 65 1027.4
20260505115924 21 0.0 0.0 0.00 0.00 0.00 66 1027.3
20260505115418 21 0.0 0.0 0.00 0.00 0.00 65 1027.2
20260505114911 21 0.0 0.0 0.00 0.00 0.00 66 1027.2
20260505114405 20 0.0 0.0 0.00 0.00 0.00 66 1027.2
20260505113857 20 0.0 0.0 0.00 0.00 0.00 67 1027.2
20260505113351 20 0.0 0.0 0.00 0.00 0.00 66 1027.1
20260505112844 20 0.0 0.0 0.00 0.00 0.00 66 1027.1
20260505112338 20 0.0 0.0 0.00 0.00 0.00 68 1027.1
20260505111829 20 0.0 0.0 0.00 0.00 0.00 67 1027.0
20260505111322 20 0.0 0.0 0.00 0.00 0.00 69 1026.8
20260505110818 20 0.0 0.0 0.00 0.00 0.00 68 1026.8
20260505101714 20 0.0 0.0 0.00 0.00 0.00 65 1026.4
20260505101208 19 0.0 0.0 0.00 0.00 0.00 68 1026.4
20260505100704 18 0.0 0.0 0.00 0.00 0.00 71 1026.4
20260505100200 18 0.0 0.0 0.00 0.00 0.00 73 1026.3
20260505095656 17 0.0 0.0 0.00 0.00 0.00 75 1026.3
20260505095152 17 0.0 0.0 0.00 0.00 0.00 75 1026.2
20260505094647 17 0.0 0.0 0.00 0.00 0.00 76 1026.1
20260505094139 17 0.0 0.0 0.00 0.00 0.00 76 1026.1
20260505093635 17 0.0 0.0 0.00 0.00 0.00 77 1026.0
20260505093129 17 0.0 0.0 0.00 0.00 0.00 77 1026.0
20260505092622 17 0.0 0.0 0.00 0.00 0.00 77 1025.9
20260505092118 17 0.0 0.0 0.00 0.00 0.00 77 1025.8
20260505091105 17 0.0 0.0 0.00 0.00 0.00 77 1025.8
20260505090559 17 0.0 0.0 0.00 0.00 0.00 77 1025.7
20260505090054 17 0.0 0.0 0.00 0.00 0.00 77 1025.7
20260505085044 17 0.0 0.0 0.00 0.00 0.00 77 1025.4
20260505084536 17 0.0 0.0 0.00 0.00 0.00 77 1025.4
20260505084032 17 0.0 0.0 0.00 0.00 0.00 77 1025.3
20260505083525 17 0.0 0.0 0.00 0.00 0.00 77 1025.2
20260505081459 17 0.0 0.0 0.00 0.00 0.00 77 1025.1
20260505080955 17 0.0 0.0 0.00 0.00 0.00 77 1025.1
20260505075940 17 0.0 0.0 0.00 0.00 0.00 76 1025.0
20260505074927 17 0.0 0.0 0.00 0.00 0.00 76 1024.9
20260505074421 17 0.0 0.0 0.00 0.00 0.00 76 1025.0
20260505073917 17 0.0 0.0 0.00 0.00 0.00 76 1024.9
20260505073411 17 0.0 0.0 0.00 0.00 0.00 76 1024.9
20260505072357 17 0.0 0.0 0.00 0.00 0.00 76 1025.0
20260505071851 17 0.0 0.0 0.00 0.00 0.00 76 1025.0
20260505071342 17 0.0 0.0 0.00 0.00 0.00 76 1025.1
20260505070837 17 0.0 0.0 0.00 0.00 0.00 76 1025.1
20260505070333 17 0.0 0.0 0.00 0.00 0.00 76 1025.2
20260505065317 17 0.0 0.0 0.00 0.00 0.00 76 1025.2
20260505064811 17 0.0 0.0 0.00 0.00 0.00 76 1025.1
20260505064307 17 0.0 0.0 0.00 0.00 0.00 76 1025.2
20260505063255 17 0.0 0.0 0.00 0.00 0.00 76 1025.3
20260505062749 17 0.0 0.0 0.00 0.00 0.00 76 1025.3
20260505062244 17 0.0 0.0 0.00 0.00 0.00 76 1025.2
20260505061740 17 0.0 0.0 0.00 0.00 0.00 76 1025.2
20260505061236 17 0.0 0.0 0.00 0.00 0.00 76 1025.3
20260505060730 18 0.0 0.0 0.00 0.00 0.00 76 1025.3
20260505060226 17 0.0 0.0 0.00 0.00 0.00 76 1025.3
20260505055210 18 0.0 0.0 0.00 0.00 0.00 76 1025.3
20260505054703 18 0.0 0.0 0.00 0.00 0.00 76 1025.3
20260505054155 18 0.0 0.0 0.00 0.00 0.00 75 1025.3
20260505053649 18 0.0 0.0 0.00 0.00 0.00 75 1025.3
20260505052131 18 0.0 0.0 0.00 0.00 0.00 75 1025.4
20260505051625 18 0.0 0.0 0.00 0.00 0.00 75 1025.3
20260505051121 18 0.0 0.0 0.00 0.00 0.00 75 1025.4
20260505050612 18 0.0 0.0 0.00 0.00 0.00 75 1025.4
20260505050106 18 0.0 0.0 0.00 0.00 0.00 75 1025.4
20260505041506 18 0.0 0.0 0.00 0.00 0.00 75 1025.6
20260505041000 18 0.0 0.0 0.00 0.00 0.00 75 1025.6
20260505040453 18 0.0 0.0 0.00 0.00 0.00 75 1025.7
20260505035946 18 0.0 0.0 0.00 0.00 0.00 75 1025.7
20260505035440 18 0.0 0.0 0.00 0.00 0.00 75 1025.7
20260505034425 18 0.0 0.0 0.00 0.00 0.00 74 1025.8
20260505033919 18 0.0 0.0 0.00 0.00 0.00 75 1025.8
20260505032906 18 0.0 0.0 0.00 0.00 0.00 74 1025.8
20260505032359 18 0.0 0.0 0.00 0.00 0.00 74 1025.8
20260505031854 18 0.0 0.0 0.00 0.00 0.00 74 1025.8
20260505031348 18 0.0 0.0 0.00 0.00 0.00 74 1025.8
20260505030842 18 0.0 0.0 0.00 0.00 0.00 74 1025.8
20260505025827 18 0.0 0.0 0.00 0.00 0.00 74 1025.9
20260505025323 18 0.0 0.0 0.00 0.00 0.00 74 1025.8
20260505024816 18 0.0 0.0 0.00 0.00 0.00 74 1025.9
20260505024311 18 0.0 0.0 0.00 0.00 0.00 74 1025.8
20260505023807 18 0.0 0.0 0.00 0.00 0.00 74 1025.8
20260505023300 18 0.0 0.0 0.00 0.00 0.00 75 1025.9
20260505022756 18 0.0 0.0 0.00 0.00 0.00 75 1025.9
20260505022248 18 0.0 0.0 0.00 0.00 0.00 74 1025.9
20260505021742 19 0.0 0.0 0.00 0.00 0.00 73 1025.9
20260505021235 19 0.0 0.0 0.00 0.00 0.00 73 1025.9
20260505020728 19 0.0 0.0 0.00 0.00 0.00 73 1025.9
20260505020222 19 0.0 0.0 0.00 0.00 0.00 73 1026.0
20260505015716 19 0.0 0.0 0.00 0.00 0.00 73 1026.0
20260505015210 19 0.0 0.0 0.00 0.00 0.00 73 1026.0
20260505014703 19 0.0 0.0 0.00 0.00 0.00 73 1026.0
20260505014159 19 0.0 0.0 0.00 0.00 0.00 73 1026.0
20260505013654 19 0.0 0.0 0.00 0.00 0.00 73 1025.9
20260505013149 19 0.0 0.0 0.00 0.00 0.00 73 1025.9
20260505012135 20 0.0 0.0 0.00 0.00 0.00 73 1025.9
20260505011629 20 0.0 0.0 0.00 0.00 0.00 73 1025.9
20260505010616 20 0.0 0.0 0.00 0.00 0.00 73 1025.9
20260505010110 20 0.0 0.0 0.00 0.00 0.00 74 1025.8
20260505005605 20 0.0 0.0 0.00 0.00 0.00 73 1025.7
20260505005101 20 0.0 0.0 0.00 0.00 0.00 74 1025.8
20260505004555 20 0.0 0.0 0.00 0.00 0.00 74 1025.7
20260505004050 20 0.0 0.0 0.00 0.00 0.00 74 1025.7
20260505003542 20 0.0 0.0 0.00 0.00 0.00 74 1025.7
20260505003035 20 0.0 0.0 0.00 0.00 0.00 74 1025.6
20260505002530 20 0.0 0.0 0.00 0.00 0.00 73 1025.6
20260505002024 20 0.0 0.0 0.00 0.00 0.00 73 1025.5
20260505001518 20 0.0 0.0 0.00 0.00 0.00 74 1025.5
20260505001011 20 0.0 0.0 0.00 0.00 0.00 74 1025.4
20260505000504 20 0.0 0.0 0.00 0.00 0.00 74 1025.4
20260504235957 20 0.0 0.0 0.00 0.00 0.00 74 1025.3
20260504235450 20 0.0 0.0 0.00 0.00 0.00 74 1025.4
20260504234944 20 0.0 0.0 0.00 0.00 0.00 74 1025.3
20260504234437 20 0.0 0.0 0.00 0.00 0.00 74 1025.2
20260504233932 20 0.0 0.0 0.00 0.00 0.00 75 1025.2
20260504232920 20 0.0 0.0 0.00 0.00 0.00 74 1025.1
20260504232414 20 0.0 0.0 0.00 0.00 0.00 74 1025.0
20260504231909 20 0.0 0.0 0.00 0.00 0.00 74 1025.0
20260504231403 20 0.0 0.0 0.00 0.00 0.00 74 1024.9
20260504230857 20 0.0 0.0 0.00 0.00 0.00 74 1024.9
20260504230352 20 0.0 0.0 0.00 0.00 0.00 74 1024.9
20260504225335 20 0.0 0.0 0.00 0.00 0.00 75 1024.8
20260504224830 20 0.0 0.0 0.00 0.00 0.00 75 1024.8
20260504224326 20 0.0 0.0 0.00 0.00 0.00 75 1024.7
20260504223822 20 0.0 0.0 0.00 0.00 0.00 75 1024.7
20260504223318 20 0.0 0.0 0.00 0.00 0.00 75 1024.7
20260504221758 20 0.0 0.0 0.00 0.00 0.00 77 1024.4
20260504220236 19 0.0 0.0 0.00 0.00 0.00 78 1024.3
20260504215730 19 0.0 0.0 0.00 0.00 0.00 77 1024.2
20260504215225 19 0.0 0.0 0.00 0.00 0.00 77 1024.3
20260504214721 19 0.0 0.0 0.00 0.00 0.00 77 1024.1
20260504214216 19 0.0 0.0 0.00 0.00 0.00 78 1024.1
20260504213712 19 0.0 0.0 0.00 0.00 0.00 79 1024.1
20260504213655 19 0.0 0.0 0.00 0.00 0.00 78 1024.0
20260504213542 19 0.0 0.0 0.00 0.00 0.00 79 1023.9
20260504213137 19 0.0 0.0 0.00 0.00 0.00 78 1023.8
20260504212633 19 0.0 0.0 0.00 0.00 0.00 77 1023.8
20260504211620 20 0.0 0.0 0.00 0.00 0.00 75 1023.8
20260504211114 20 0.0 0.0 0.00 0.00 0.00 74 1023.7
20260504211102 20 0.0 0.0 0.00 0.00 0.00 74 1023.6
20260504210938 20 0 0.0 0.0 0.00 0.00 0.00 75 1023.6
20260504210651 20 0 0.0 0.0 0.00 0.00 0.00 74 1023.6
20260504210146 21 0 0.0 0.0 0.00 0.00 0.00 72 1023.5
20260504205641 21 0 0.0 0.0 0.00 0.00 0.00 69 1023.4
20260504205135 21 0 0.0 0.0 0.00 0.00 0.00 68 1023.3
20260504204121 22 0 0.0 0.0 0.00 0.00 0.00 66 1023.3
20260504203612 22 0 0.0 0.0 0.00 0.00 0.00 64 1023.3
20260504203104 22 0 0.0 0.0 0.00 0.00 0.00 65 1023.2
20260504202559 22 0 0.0 0.0 0.00 0.00 0.00 62 1023.2
20260504201547 23 0 0.0 0.0 0.00 0.00 0.00 61 1023.1
20260504200534 23 0 0.0 0.0 0.00 0.00 0.00 59 1023.0
20260504200030 23 0 0.0 0.0 0.00 0.00 0.00 57 1023.0
20260504195524 23 0 0.0 0.0 0.00 0.00 0.00 56 1022.9
20260504194510 23 0 0.0 0.0 0.00 0.00 0.00 56 1022.8
20260504194005 23 0 0.0 0.0 0.00 0.00 0.00 55 1022.6
20260504193501 23 0 0.0 0.0 0.00 0.00 0.00 55 1022.7
20260504192955 23 0 0.0 0.0 0.00 0.00 0.00 55 1022.8
20260504192448 23 0 0.0 0.0 0.00 0.00 0.00 54 1022.8
20260504191943 23 0 0.0 0.0 0.00 0.00 0.00 55 1022.6
20260504191438 23 0 0.0 0.0 0.00 0.00 0.00 55 1022.5
20260504190934 23 0 0.0 0.0 0.00 0.00 0.00 55 1022.6
20260504190426 23 0 0.0 0.0 0.00 0.00 0.00 55 1022.5
20260504185919 24 0 0.0 0.0 0.00 0.00 0.00 54 1022.5
20260504184903 24 0 0.0 0.0 0.00 0.00 0.00 54 1022.5
20260504184359 24 0 0.0 0.0 0.00 0.00 0.00 54 1022.5
20260504183850 23 0 0.0 0.0 0.00 0.00 0.00 54 1022.5
20260504183344 24 0 0.0 0.0 0.00 0.00 0.00 53 1022.5
20260504182840 24 0 0.0 0.0 0.00 0.00 0.00 53 1022.5
20260504182333 24 0 0.0 0.0 0.00 0.00 0.00 53 1022.5
20260504181827 24 0 0.0 0.0 0.00 0.00 0.00 53 1022.6
20260504181322 24 0 0.0 0.0 0.00 0.00 0.00 53 1022.5
20260504180816 24 0 0.0 0.0 0.00 0.00 0.00 52 1022.5
20260504180308 24 0 0.0 0.0 0.00 0.00 0.00 53 1022.5
20260504175801 24 0 0.0 0.0 0.00 0.00 0.00 52 1022.5
20260504174750 24 0 0.0 0.0 0.00 0.00 0.00 53 1022.8
20260504173737 24 0 0.0 0.0 0.00 0.00 0.00 53 1022.7
20260504173233 24 0 0.0 0.0 0.00 0.00 0.00 52 1022.7
20260504172726 24 0 0.0 0.0 0.00 0.00 0.00 52 1022.7
20260504172222 25 0 0.0 0.0 0.00 0.00 0.00 51 1022.7
20260504171717 25 0 0.0 0.0 0.00 0.00 0.00 51 1022.8
20260504171213 25 0 0.0 0.0 0.00 0.00 0.00 51 1023.0
20260504170707 25 0 0.0 0.0 0.00 0.00 0.00 51 1022.9
20260504170200 25 0 0.0 0.0 0.00 0.00 0.00 51 1022.9
20260504150442 23 0 0.0 0.0 0.00 0.00 0.00 51 1024.0
20260504140834 23 0 0.0 0.0 0.00 0.00 0.00 51 1024.8
20260504130718 22 0 0.0 0.0 0.00 0.00 0.00 56 1025.3
20260504130211 22 0 0.0 0.0 0.00 0.00 0.00 57 1025.4